Berlin Schoenefeld, Germany

03:22 AM CEST am 23. Mai 2017 (GMT +0200)
Schonefeld

Wetter Verlauf für EDDB - Mai, 2017

Change the Weather History Date:

Freitag, Mai 19, 2017

  Actual Average Record
Temperature  
mittlereTemperatur 70 °F -  
Max. Temperatur 85 °F - - ()
Min.Temperatur 56 °F - - ()
Cooling Degree Days 6    
Growing Degree Days 20 (Base 50)    
Moisture  
Taupunkt 52 °F    
Average Humidity 52    
Maximum Humidity 88    
Minimum Humidity 22    
Niederschlag  
Niederschlag 0.00 inch - - ()
Luftdruck in Meereshöhe  
Luftdruck in Meereshöhe 29.77 inch    
Wind  
Windgeschwindigkeit 6 mph ()    
Max. Windgeschwindigkeit 12 mph    
Max Gust Speed -    
Sichtweite 6.2 Meilen    
Ereignisse      
T = Trace of Precipitation, MM = Missing Value Source: Averaged Metar Reports

Daily Weather History Graph

Daily Weather History Graph

Search for Another Location

Airport or City:

Trip Planner

Search our weather history database for the weather conditions in past years. The results will help you decide how hot, cold, wet, or windy it might be!

Date:

Astronomie

May. 19, 2017 Aufgang Untergang
Genaue Zeit 05:04 CEST 21:01 CEST
Bürgerliche Dämmerung 04:20 CEST 21:45 CEST
Nautische Dämmerung 03:18 CEST 22:48 CEST
Astronomische Dämmerung 01:34 CEST 00:30 CEST
Mond 02:24 CEST (5/19) 12:42 CEST (5/19)
Länge des sichtbaren Lichts 17h 24m
Tageslänge
15h 56m
Letztes Viertel, 46% of the Moon is Illuminated
Mai 19
Letztes Viertel
Mai 25
Neu
Jun 1
Erstes Viertel
Jun 9
Vollmond
Jun 17
Letztes Viertel

Hourly Weather History & Observations

Zeit (CEST) Temp. Hitzeindex Taupunkt Feuchtigkeit Druck Sichtweite Wind Dir Windgeschwindigkeit Böengeschwindigkeit Precip Ereignisse Wetterzustand
12:20 AM 60.8 °F - 51.8 °F 72% 29.83 inch - Ost 4.6 mph - N/A   Heiter
12:50 AM 60.8 °F - 51.8 °F 72% 29.83 inch - Ost 5.8 mph - N/A   Heiter
1:20 AM 62.6 °F - 51.8 °F 68% 29.83 inch - Ost 4.6 mph - N/A   Heiter
1:50 AM 60.8 °F - 51.8 °F 72% 29.80 inch - Ost 4.6 mph - N/A   Heiter
2:00 AM 61 °F - 51 °F 60% 29.82 inch 31 mi Ost-Südost 6.7 mph - -   Heiter
2:20 AM 60.8 °F - 51.8 °F 72% 29.80 inch - Ost 4.6 mph - N/A   Heiter
2:50 AM 59.0 °F - 51.8 °F 77% 29.80 inch - Ost 4.6 mph - N/A   Heiter
3:20 AM 59.0 °F - 51.8 °F 77% 29.80 inch - Ost 4.6 mph - N/A   Heiter
3:50 AM 59.0 °F - 51.8 °F 77% 29.80 inch - Ost-Südost 3.5 mph - N/A   Heiter
4:20 AM 59.0 °F - 51.8 °F 77% 29.80 inch - Wechselnd 1.2 mph - N/A   Heiter
4:50 AM 55.4 °F - 51.8 °F 88% 29.80 inch - Ost 5.8 mph - N/A   Heiter
5:20 AM 57.2 °F - 51.8 °F 82% 29.80 inch - Wechselnd 2.3 mph - N/A   Heiter
5:50 AM 59.0 °F - 51.8 °F 77% 29.80 inch - Ost 4.6 mph - N/A   Heiter
6:20 AM 59.0 °F - 53.6 °F 82% 29.80 inch - Wechselnd 2.3 mph - N/A   Heiter
6:50 AM 62.6 °F - 53.6 °F 72% 29.80 inch - Süd-Südost 4.6 mph - N/A   Heiter
7:20 AM 64.4 °F - 53.6 °F 68% 29.80 inch - Südost 5.8 mph - N/A   Heiter
7:50 AM 66.2 °F - 53.6 °F 64% 29.80 inch - Südost 5.8 mph - N/A   Heiter
8:00 AM 65 °F - 53 °F 55% 29.82 inch 22 mi Südost 8.9 mph - -   Heiter
8:20 AM 68.0 °F - 55.4 °F 64% 29.80 inch - Süd-Südost 5.8 mph - N/A   Heiter
8:50 AM 69.8 °F - 53.6 °F 56% 29.80 inch - Süd 4.6 mph - N/A   Heiter
9:20 AM 71.6 °F - 55.4 °F 57% 29.80 inch - Ost-Südost 4.6 mph - N/A   Heiter
9:50 AM 73.4 °F - 55.4 °F 53% 29.80 inch - Ost 8.1 mph - N/A   Heiter
10:20 AM 75.2 °F - 55.4 °F 50% 29.80 inch - Ost 8.1 mph - N/A   Heiter
10:50 AM 77.0 °F - 55.4 °F 47% 29.80 inch - Ost 9.2 mph - N/A   Heiter
11:20 AM 78.8 °F - 55.4 °F 44% 29.77 inch - Ost-Südost 9.2 mph - N/A   Heiter
11:50 AM 80.6 °F 80.5 °F 55.4 °F 42% 29.77 inch - Südost 10.4 mph - N/A   Heiter
12:20 PM 82.4 °F 81.4 °F 53.6 °F 37% 29.77 inch - Südost 11.5 mph - N/A   Heiter
12:50 PM 82.4 °F - 50.0 °F 32% 29.77 inch - Süd-Südost 9.2 mph - N/A   Heiter
1:20 PM 82.4 °F - 50.0 °F 32% 29.74 inch - Süd-Südost 9.2 mph - N/A   Heiter
1:50 PM 84.2 °F - 51.8 °F 33% 29.74 inch - Süd 5.8 mph - N/A   Heiter
2:00 PM 83 °F - 50 °F 22% 29.76 inch 22 mi Süd-Südost 11.2 mph - -   Teils Wolkig
2:20 PM 84.2 °F - 50.0 °F 30% 29.74 inch - Südost 9.2 mph - N/A   Heiter
2:50 PM 84.2 °F - 50.0 °F 30% 29.74 inch - Süd 8.1 mph - N/A   Heiter
3:20 PM 86.0 °F - 50.0 °F 29% 29.74 inch - Wechselnd 6.9 mph - N/A   Heiter
3:50 PM 86.0 °F - 50.0 °F 29% 29.74 inch - Ost-Südost 9.2 mph - N/A   Heiter
4:20 PM 86.0 °F - 50.0 °F 29% 29.71 inch - Ost-Südost 6.9 mph - N/A   Heiter
4:50 PM 86.0 °F - 50.0 °F 29% 29.71 inch - Ost 8.1 mph - N/A   Heiter
5:20 PM 84.2 °F - 50.0 °F 30% 29.71 inch - Ost 8.1 mph - N/A   Heiter
5:50 PM 84.2 °F - 50.0 °F 30% 29.71 inch - Ost 8.1 mph - N/A   Heiter
6:20 PM 84.2 °F - 50.0 °F 30% 29.68 inch - Ost-Südost 10.4 mph - N/A   Heiter
6:50 PM 82.4 °F - 50.0 °F 32% 29.68 inch - Ost 8.1 mph - N/A   Heiter
7:20 PM 80.6 °F - 50.0 °F 34% 29.71 inch - Ost-Südost 5.8 mph - N/A   Heiter
7:50 PM 80.6 °F - 51.8 °F 37% 29.71 inch - Ost-Südost 4.6 mph - N/A   Heiter
8:00 PM 80 °F - 50 °F 24% 29.72 inch 22 mi Ost-Südost 8.9 mph - -   Teils Wolkig
8:20 PM 78.8 °F - 50.0 °F 36% 29.71 inch - Ost 6.9 mph - N/A   Heiter
8:50 PM 78.8 °F - 51.8 °F 39% 29.71 inch - Ost-Südost 8.1 mph - N/A   Heiter
9:20 PM 75.2 °F - 51.8 °F 44% 29.71 inch - Südost 5.8 mph - N/A   Heiter
9:50 PM 73.4 °F - 53.6 °F 50% 29.74 inch - Ost-Südost 4.6 mph - N/A   Heiter
10:20 PM 71.6 °F - 53.6 °F 53% 29.74 inch - Ost-Südost 4.6 mph - N/A   Heiter
10:50 PM 71.6 °F - 53.6 °F 53% 29.74 inch - Ost-Südost 4.6 mph - N/A   Heiter
11:20 PM 71.6 °F - 53.6 °F 53% 29.77 inch 6.2 mi West-Südwest 10.4 mph - N/A   Teils Wolkig
11:50 PM 68.0 °F - 62.6 °F 83% 29.77 inch 6.2 mi West-Nordwest 11.5 mph - N/A   Teils Wolkig